(145) Adeona
ephemeris date magn radius delta ra dec elong phase
Today13 May 202514.32.927 AU3.451 AU00h23m-09°05'51.2°15.6°
Opposition9 Oct 202512.32.730 AU1.761 AU01h26m-09°36'162.6°6.3°
(145) Adeona - 2025-05-13
astro.vanbuitenen.nl


 
-1 year
-1 month
-1 day
Now
+1 day
+1 month
+1 year

The interactive orbit chart above shows the body's path through the solar system and its position at the given date. Green and blue lines are shown perpendicular to the ecliptic plane: Green if the path is above the ecliptic plane, blue if it is below. (Left-click and drag to rotate the view; Right-click and drag to move the view; Use scroll wheel to zoom in our out.)

The orbital elements of Adeona are:

            e (Eccentricity)                : 0.1473685
            a (Semimajor axis)              : 2.6710540
            i (Inclination)                 : 12.62161
            Ω (Longitude of ascending node) : 77.32203
            ω (Argument of perihelion)      : 45.24988
            M (Mean anomaly)                : 234.15012
            Epoch                           : 2025 May 05

            L (Longitude of perihelion)     : 121.87114
            B (Latitude of perihelion)      : 8.92742
            P (Orbital period in years)     : 4.37            
        

The light curve chart below shows the estimated development of the minor planet's magnitude.


The all-sky chart below shows the path of the minor planet over the same period as the light curve. The current position is marked yellow.





The following chart shows the path of the minor planet in the next few days. The field of view is optimized for (~10x50) binoculars and finderscopes. A more printer-friendly version of the same chart can be found below.




Ephemerides:
Date       Time       RA (2000)    DEC (2000)    delta   radius  elong  phase   PA    magn
2025-05-13 00:00 UT   00 23 28.1   -09 05 60     3.451    2.927   51.2   15.6   238   14.3 
2025-05-13 05:48 UT   00 23 47.1   -09 04 26     3.449    2.926   51.4   15.6   238   14.3 
2025-05-14 00:00 UT   00 24 46.6   -08 59 35     3.440    2.925   51.8   15.8   238   14.3 
2025-05-15 00:00 UT   00 26 04.8   -08 53 13     3.429    2.924   52.4   15.9   238   14.3 
2025-05-16 00:00 UT   00 27 22.8   -08 46 56     3.417    2.923   53.1   16.0   238   14.3 
2025-05-17 00:00 UT   00 28 40.5   -08 40 41     3.406    2.922   53.7   16.2   238   14.3 
2025-05-18 00:00 UT   00 29 57.9   -08 34 30     3.394    2.921   54.3   16.3   238   14.3 
2025-05-19 00:00 UT   00 31 15.1   -08 28 23     3.382    2.920   54.9   16.5   239   14.3 
2025-05-20 00:00 UT   00 32 31.9   -08 22 20     3.370    2.919   55.5   16.6   239   14.3 
2025-05-21 00:00 UT   00 33 48.4   -08 16 20     3.358    2.918   56.1   16.7   239   14.3 
2025-05-22 00:00 UT   00 35 04.6   -08 10 24     3.346    2.917   56.7   16.9   239   14.3 
2025-05-23 00:00 UT   00 36 20.5   -08 04 32     3.334    2.916   57.4   17.0   239   14.3 
2025-05-24 00:00 UT   00 37 36.1   -07 58 44     3.322    2.914   58.0   17.1   239   14.3 
2025-05-25 00:00 UT   00 38 51.4   -07 52 60     3.310    2.913   58.6   17.3   240   14.3 
2025-05-26 00:00 UT   00 40 06.3   -07 47 20     3.298    2.912   59.2   17.4   240   14.3 
2025-05-27 00:00 UT   00 41 20.9   -07 41 44     3.285    2.911   59.8   17.5   240   14.3 
2025-05-28 00:00 UT   00 42 35.1   -07 36 13     3.273    2.910   60.5   17.6   240   14.2 
2025-05-29 00:00 UT   00 43 49.0   -07 30 46     3.260    2.909   61.1   17.8   240   14.2 
2025-05-30 00:00 UT   00 45 02.6   -07 25 23     3.248    2.908   61.7   17.9   240   14.2 
2025-05-31 00:00 UT   00 46 15.7   -07 20 05     3.235    2.907   62.3   18.0   241   14.2 
2025-06-01 00:00 UT   00 47 28.5   -07 14 51     3.222    2.905   63.0   18.1   241   14.2 
2025-06-02 00:00 UT   00 48 40.9   -07 09 41     3.209    2.904   63.6   18.2   241   14.2 
2025-06-03 00:00 UT   00 49 52.9   -07 04 37     3.197    2.903   64.2   18.3   241   14.2 
2025-06-04 00:00 UT   00 51 04.6   -06 59 36     3.184    2.902   64.9   18.4   241   14.2 
2025-06-05 00:00 UT   00 52 15.8   -06 54 41     3.171    2.901   65.5   18.6   241   14.2 
2025-06-06 00:00 UT   00 53 26.7   -06 49 50     3.157    2.900   66.1   18.7   242   14.2 
2025-06-07 00:00 UT   00 54 37.1   -06 45 04     3.144    2.898   66.8   18.8   242   14.2 
2025-06-08 00:00 UT   00 55 47.1   -06 40 23     3.131    2.897   67.4   18.9   242   14.2 


    Terminology:
            
    delta:  distance between minor planet and earth in AU
    radius: distance between minor planet and sun in AU
    magn:   magnitude (brightness) estimate    
    ra:     right ascension in hours (24h = 360deg)
    dec:    declination in degrees
    elong:  elongation in degrees (angle sun-earth-minor planet)    
    phase:  phase angle in degrees (angle sun-minor planet-earth)        
    AU:     Astronomical Unit (mean distance between earth and sun: 149597870.7 km
    

Orbital elements provided by the MPC (Minor Planet Center).
Calculations by a modified version of AAPlus, a C# implementation of the AA+ project by PJ Naughter from the algorithms presented in the book "Astronomical Algorithms" by Jean Meeus.
NGC2000 dso catalog and star labels from VizieR as provided by the Strasbourg astronomical Data Center.
Tycho2 catalog from the ESO archive.